Regional Weather Roundup
Issued by NWS

Home | Current Version | Previous Version | Text Only | Print | Product List | Glossary Off
Versions: 1 2 3 4 5 6 7 8 9 10 11 12 13 14 15 16 17 18 19 20 21 22 23 24 25 26 27 28 29 30 31 32 33 34 35 36 37 38 39 40 41 42 43 44 45 46 47 48 49 50

000
ASUS43 KBIS 280702
RWRND

NORTH DAKOTA REGIONAL WEATHER ROUNDUP
NATIONAL WEATHER SERVICE BISMARCK ND
200 AM CDT THU JUL 28 2016

NOTE: "FAIR" INDICATES FEW OR NO CLOUDS BELOW 12,000 FEET WITH NO
SIGNIFICANT WEATHER AND/OR OBSTRUCTIONS TO VISIBILITY.


NDZ001>003-009>011-017-280800-
NORTHWEST NORTH DAKOTA

CITY           SKY/WX    TMP DP  RH WIND       PRES   REMARKS
WILLISTON      CLOUDY    65  59  81 E7        30.16S
MINOT          CLOUDY    65  57  75 NE6       30.15S
MINOT AFB      MOCLDY    62  55  78 E9        30.15R
$$

NDZ018>021-031>035-040>046-280800-
SOUTHWEST NORTH DAKOTA

CITY           SKY/WX    TMP DP  RH WIND       PRES   REMARKS
BISMARCK       LGT RAIN  65  61  87 CALM      30.14S
DICKINSON      MOCLDY    59  57  93 E6        30.12F
GARRISON         N/A     63  62  97 NE3       30.15S
HETTINGER ARPT PTCLDY    62  58  86 E9        30.12F
$$

NDZ004>008-012>016-024-026-027-054-280800-
NORTHEAST NORTH DAKOTA

CITY           SKY/WX    TMP DP  RH WIND       PRES   REMARKS
GRAND FORKS    MOCLDY    61  57  87 N7        30.09S
GRND FRKS AFB  CLOUDY    63  57  82 N8        30.11R
DEVILS LAKE    PTCLDY    57  54  89 NE5       30.16S
$$

NDZ022-023-025-028>030-036>039-047>053-280800-
SOUTHEAST NORTH DAKOTA

CITY           SKY/WX    TMP DP  RH WIND       PRES   REMARKS
FARGO          MOCLDY    63  59  87 N7        30.06S
JAMESTOWN      CLOUDY    60  56  86 NE6       30.12S
$$





USA.gov is the U.S. government's official web portal to all federal, state and local government web resources and services.